Theta_e
314 309 309 312 311 312 312 312 312 313 313 315 315 310 306 305 305 304 303 305 305 305 303 304 303 303 303 301 300 298 302 302 305 303 305 302 304 302 302 304 303 303 303 302 305
316 315 313 308 312 312 312 312 312 312 313 314 315 311 306 305 304 305 306 305 306 305 303 303 302 302 301 302 301 301 300 302 302 301 303 303 303 302 303 302 303 303 301 302 304
312 311 314 315 309 312 312 312 312 312 312 313 314 310 305 304 306 306 308 305 307 304 304 304 303 303 304 302 302 300 301 301 302 303 303 303 303 302 302 303 301 303 302 301 300
310 308 308 311 314 311 312 312 312 312 312 313 314 309 305 304 310 306 308 307 304 302 304 304 303 303 303 303 302 303 301 301 303 304 303 304 302 303 301 301 301 299 302 300 301
306 305 307 308 312 313 312 312 313 313 313 312 313 309 305 305 304 306 307 306 303 302 303 302 303 302 304 303 303 302 303 303 302 303 303 302 302 302 300 299 298 298 298 300 301
306 306 305 308 312 315 311 312 313 314 313 312 313 309 303 305 307 306 305 302 302 302 303 302 302 302 304 305 304 304 303 303 302 303 302 303 302 300 302 299 300 300 298 298 298
306 306 305 311 314 315 311 312 313 314 313 311 312 310 305 304 305 304 302 302 302 302 302 302 303 303 302 304 303 303 303 303 303 303 302 300 304 300 300 300 300 297 297 296 296
307 307 307 313 314 315 312 312 314 314 312 311 310 309 303 304 304 303 301 302 303 303 303 303 303 302 303 302 303 304 304 306 306 302 303 303 306 305 298 299 300 298 295 294 294
306 306 307 309 313 315 312 313 314 314 312 309 309 305 304 301 301 302 301 302 302 302 302 302 302 301 302 302 304 305 307 305 306 302 302 302 305 303 298 299 299 297 293 293 293
304 305 306 307 307 309 312 312 313 311 307 308 306 305 304 301 301 301 301 302 302 301 301 301 301 301 301 303 310 307 306 306 307 304 302 302 301 300 300 299 297 294 293 292 292
304 303 303 303 304 306 308 309 310 308 307 308 308 306 304 301 301 301 302 302 302 302 301 302 302 303 304 304 306 306 307 308 306 302 303 303 301 302 300 298 297 296 294 294 293
301 301 300 301 302 303 305 309 308 305 311 307 308 307 302 301 301 301 302 303 303 303 303 303 303 303 305 305 306 305 307 306 304 302 303 302 302 301 300 298 297 296 295 295 294
301 300 300 300 299 303 301 304 306 306 310 311 309 307 305 301 304 302 302 303 303 304 305 306 306 304 306 305 306 305 306 305 307 303 301 301 302 301 299 297 295 295 294 294 293
300 301 299 300 300 299 299 303 305 306 309 310 313 310 303 304 306 302 302 303 303 305 305 306 305 305 306 306 306 309 303 304 304 304 306 300 302 302 300 298 297 296 294 293 293
299 299 299 300 299 299 300 301 303 305 310 309 311 302 304 307 305 303 301 303 306 305 307 308 304 305 306 305 306 308 302 303 302 303 298 303 299 302 298 299 297 295 293 293 293
298 298 300 299 298 297 299 299 302 306 309 310 302 302 305 304 300 299 302 303 303 305 305 304 301 303 304 302 304 301 303 303 301 302 301 301 303 303 299 297 297 295 293 293 292
299 298 297 298 297 297 297 300 305 307 306 305 304 302 305 304 302 301 303 305 306 307 307 306 305 302 301 304 302 304 307 309 309 305 306 298 301 303 298 295 294 293 292 292 290
298 298 296 298 297 296 296 302 304 302 307 300 299 302 306 303 303 302 304 305 305 307 308 309 307 304 302 305 305 305 308 311 312 302 301 299 301 304 293 286 281 284 282 289 291
297 297 295 298 297 295 297 301 298 300 305 302 301 305 306 304 303 303 304 305 305 305 312 309 311 302 302 302 304 305 308 302 299 292 295 296 297 297 294 291 287 286 292 292 290
297 294 293 295 295 295 297 299 297 304 302 301 304 302 304 303 304 304 303 302 304 304 305 306 305 304 301 301 301 304 301 307 301 302 300 295 294 300 295 292 290 287 292 291 290
294 294 294 295 296 296 295 295 299 302 304 301 302 304 303 303 305 303 304 302 301 303 306 302 304 303 302 302 303 302 303 301 302 296 296 295 298 288 290 291 290 289 290 285 284
293 294 294 296 298 297 297 297 302 303 304 305 304 305 304 303 305 303 305 304 302 304 307 303 303 301 298 293 296 297 298 299 302 297 289 291 297 281 280 284 287 289 291 284 284
294 293 295 298 298 296 291 298 301 301 302 304 306 305 304 305 306 304 304 302 303 304 306 303 303 302 301 301 299 301 298 295 294 295 292 297 298 283 282 282 284 284 284 285 285
295 296 294 297 297 298 294 294 294 300 303 304 304 304 302 303 303 305 304 303 302 303 304 303 302 295 301 300 297 299 299 298 300 294 292 295 293 292 289 287 285 284 284 279 280
293 296 291 295 294 296 295 298 297 294 300 301 303 303 304 304 302 303 303 302 302 304 300 303 303 298 294 292 294 291 299 300 301 294 303 293 296 295 293 290 288 282 276 278 277
295 294 294 296 296 295 296 296 299 300 301 303 303 303 301 303 303 302 302 303 303 302 301 298 299 299 296 292 289 295 294 294 298 291 291 285 291 289 276 270 277 280 274 276 274
292 292 297 296 296 296 298 297 296 297 299 301 301 302 301 300 299 297 298 300 301 301 300 299 295 300 301 291 294 297 290 294 294 293 300 297 298 286 283 277 278 276 284 281 278
Wind_Speed
18 17 17 16 16 14 14 14 12 13 13 14 12 12 12 12 11 8 8 7 6 8 4 3 3 3 1 2 3 3 3 3 5 6 4 2 0 1 2 1 1 3 2 2 11
20 22 20 18 17 16 15 15 13 14 13 13 13 12 11 10 9 10 17 10 10 9 6 8 3 4 1 1 1 3 4 9 5 5 4 1 1 3 2 2 2 2 4 5 20
22 20 23 23 20 18 16 15 14 15 14 14 12 11 9 7 3 5 4 13 10 7 7 7 7 3 2 2 4 4 5 4 4 4 3 2 2 1 1 2 7 3 2 6 9
27 28 25 25 25 21 18 16 17 16 14 15 14 9 7 1 7 2 6 12 9 8 8 7 4 5 4 5 3 3 6 4 3 1 1 2 1 3 6 7 1 5 3 6 9
31 33 31 31 27 25 20 15 16 17 18 17 12 8 4 2 9 5 9 11 11 10 9 5 4 5 5 4 4 3 3 3 4 3 5 3 7 6 7 9 6 6 4 7 8
31 34 35 34 28 26 23 19 17 18 19 16 10 6 2 5 4 7 12 12 9 10 7 7 6 5 3 3 5 0 2 5 5 4 4 5 3 5 1 5 1 3 5 2 6
29 33 38 29 25 25 23 21 20 18 18 13 8 7 3 12 4 8 12 10 11 9 5 5 5 4 4 1 1 1 5 5 5 3 6 6 6 9 6 4 5 7 6 6 5
27 29 35 23 21 23 22 22 23 18 14 9 6 6 7 7 15 14 13 7 7 7 4 7 6 4 2 2 4 1 1 3 1 4 2 5 7 2 5 6 5 7 7 6 6
22 24 25 25 16 23 22 23 24 20 15 7 5 3 8 3 8 17 16 9 9 7 5 7 4 3 3 5 3 1 4 5 7 4 3 5 6 5 4 7 7 5 6 5 6
17 19 20 18 17 14 18 21 19 16 8 9 2 1 6 6 7 13 13 15 4 6 4 3 3 3 2 5 9 7 5 5 5 2 4 4 9 10 1 5 6 6 6 5 6
15 16 18 19 18 16 13 1 1 2 7 11 13 7 2 4 8 7 14 9 5 3 7 4 4 11 16 13 3 4 4 5 3 1 2 6 6 13 6 1 3 3 3 3 3
13 14 17 21 21 19 13 5 2 5 7 18 9 17 6 9 4 4 15 7 6 7 7 3 15 10 6 7 5 4 4 5 3 1 1 5 12 12 6 3 4 2 0 2 1
22 23 26 25 26 9 14 16 18 12 6 5 18 11 6 10 6 13 14 5 5 8 14 10 4 12 13 6 8 5 8 5 4 0 2 5 8 5 2 2 3 3 1 1 1
28 26 20 16 12 15 11 16 13 13 5 5 10 9 9 8 5 6 20 5 5 14 6 8 3 5 8 9 8 7 8 5 4 3 4 2 5 5 4 5 5 5 4 4 2
25 24 14 9 12 3 10 15 19 4 6 4 6 6 10 12 12 8 11 3 13 7 8 9 5 8 5 5 10 2 5 6 3 3 4 1 2 5 1 6 7 7 6 5 1
27 27 18 12 10 13 16 21 13 6 7 5 1 2 7 4 2 5 7 8 4 4 1 2 4 2 4 4 5 11 7 6 4 2 2 5 5 5 5 6 4 4 6 5 2
29 28 30 17 5 7 16 8 5 7 3 5 4 6 6 6 5 7 15 11 8 6 8 4 3 4 3 9 3 3 8 2 1 2 6 1 1 8 4 5 4 8 7 2 2
27 26 31 26 20 14 6 4 10 4 6 1 1 5 5 7 4 8 10 9 9 1 5 9 5 10 6 5 8 6 5 5 7 4 3 2 7 6 4 1 1 1 2 3 1
24 18 12 23 20 15 3 9 5 5 2 7 3 3 5 4 4 4 9 7 12 11 9 7 6 3 2 3 5 6 6 4 6 2 3 3 6 7 4 1 1 2 5 5 1
12 6 8 19 12 15 5 16 6 4 3 3 4 3 6 6 7 11 10 5 6 14 1 6 3 3 3 4 1 4 5 4 0 3 4 4 5 6 5 7 4 3 6 4 1
1 3 5 6 20 5 6 8 7 7 7 8 7 5 7 5 6 5 9 2 11 15 7 5 3 4 6 6 8 4 3 1 4 2 5 1 6 6 7 9 10 8 6 5 3
4 3 4 20 6 3 8 6 5 3 6 7 4 5 6 7 7 9 11 3 2 14 9 4 4 4 3 3 1 2 6 4 4 5 1 3 6 1 5 6 7 7 4 2 3
2 3 5 10 3 5 3 4 3 2 5 4 7 8 3 6 5 9 8 3 5 10 12 7 4 5 2 1 3 5 4 3 4 3 6 6 5 2 1 1 4 4 4 3 3
1 3 2 4 2 1 2 5 5 5 7 6 5 5 3 5 3 6 4 4 6 5 9 12 2 4 6 3 4 5 7 8 4 3 5 7 3 3 6 6 5 5 4 4 4
3 2 3 2 5 4 2 2 5 4 6 4 5 7 4 4 2 3 2 4 1 10 3 4 4 3 3 4 3 4 7 13 13 5 8 3 9 5 11 11 8 5 1 2 4
2 2 1 1 2 4 7 4 10 5 4 2 5 6 5 4 1 3 4 2 3 2 2 3 3 2 2 2 3 1 4 4 7 2 6 2 8 7 0 1 2 6 4 3 4
3 4 1 0 2 2 2 4 6 3 6 5 5 3 1 3 3 1 3 3 3 4 2 3 5 2 2 2 1 6 10 11 6 5 12 11 10 7 3 4 5 5 6 6 4
Wind_Direction
329 326 322 317 313 309 300 307 311 315 319 325 329 326 318 312 307 294 253 227 204 218 222 185 168 163 147 92 106 141 73 215 236 165 243 353 349 214 332 174 273 189 146 359 154
324 321 319 312 303 300 300 300 306 309 313 318 322 323 319 312 312 254 261 232 211 182 187 169 173 150 67 129 19 107 152 219 209 192 207 221 136 304 7 66 287 297 96 125 161
327 323 311 303 297 291 289 290 296 304 308 314 316 318 317 319 325 238 272 215 202 201 174 169 147 152 191 140 191 172 214 232 263 229 174 178 279 243 243 236 227 234 165 152 168
326 321 313 305 289 282 278 280 289 293 302 307 311 313 311 305 258 156 169 180 190 184 161 151 130 149 183 208 176 196 235 231 316 335 9 247 142 274 208 219 137 158 116 159 182
324 324 316 308 285 273 271 262 280 285 295 302 303 304 293 247 249 243 166 180 179 174 173 155 151 144 189 194 153 223 255 190 229 212 260 315 243 236 243 238 262 267 240 197 208
323 324 319 307 287 265 262 257 260 271 283 293 293 277 250 240 253 210 187 177 181 174 176 159 193 189 198 204 174 208 271 275 272 230 237 213 267 132 5 111 214 134 46 310 231
324 326 325 307 291 262 260 256 256 261 276 287 274 244 235 240 249 202 193 192 189 185 154 200 167 152 138 261 354 351 316 313 236 212 221 165 275 232 252 327 77 82 10 351 349
322 327 330 313 292 265 259 255 254 254 263 277 254 219 247 254 238 210 190 171 184 182 192 167 163 110 166 148 21 8 47 293 318 152 192 145 260 179 50 76 333 331 352 350 344
316 323 337 335 310 273 260 260 255 248 248 226 184 194 262 240 199 212 196 164 153 138 125 131 129 145 93 109 359 279 232 216 310 203 159 180 257 208 63 16 318 345 349 345 342
315 329 330 335 349 327 281 261 231 213 168 160 98 27 257 221 178 187 188 159 139 130 87 101 70 138 102 146 220 193 216 229 234 230 196 216 259 274 0 16 334 347 1 13 16
316 329 337 346 337 338 329 218 237 181 206 191 183 203 157 149 138 168 164 139 117 136 165 200 171 201 200 202 118 143 177 209 216 167 233 235 261 270 298 285 332 9 11 20 40
337 344 349 340 335 331 322 273 68 332 252 228 240 221 155 169 127 176 167 164 169 184 136 129 233 212 184 180 192 169 185 224 271 159 264 324 276 258 246 217 192 220 284 36 82
300 316 325 325 330 308 332 290 290 310 265 213 210 198 186 182 189 177 170 154 194 190 192 194 195 196 184 164 187 213 210 183 218 24 38 331 283 260 227 168 187 189 178 196 224
295 294 302 315 316 324 298 309 316 252 252 224 196 226 166 120 241 182 177 137 215 209 175 244 207 144 189 201 158 214 185 148 140 111 243 359 280 290 218 228 213 203 193 187 151
302 279 271 286 298 285 301 311 315 272 256 137 164 349 164 170 130 197 165 127 204 173 157 211 194 168 182 186 167 196 113 110 95 93 32 211 43 261 84 245 223 214 205 204 204
312 307 257 262 251 285 317 296 308 231 250 155 92 191 142 163 94 124 141 96 115 161 254 323 305 179 168 68 123 142 91 64 60 80 297 204 175 252 194 213 171 168 184 192 309
302 302 305 234 216 288 303 317 245 247 118 222 191 166 196 168 156 184 169 169 167 153 193 135 192 307 152 89 109 122 144 141 193 180 230 238 129 259 240 217 200 169 176 163 298
302 309 303 246 244 269 309 248 250 260 232 24 149 149 195 153 187 183 162 185 229 152 144 177 216 168 186 166 176 183 171 166 193 203 221 104 229 249 220 184 312 337 198 230 282
312 308 288 239 243 237 212 222 236 242 151 143 59 202 189 185 152 166 196 205 198 185 185 175 217 101 120 117 146 169 203 120 101 46 49 206 280 288 144 9 30 212 167 171 194
293 292 248 262 215 163 201 228 218 224 127 107 217 218 204 185 181 186 169 199 207 184 229 173 120 170 121 116 44 206 158 134 132 172 232 274 276 242 212 216 210 225 198 192 159
262 267 261 210 166 172 207 225 231 260 222 190 205 192 228 183 209 207 193 216 201 186 156 131 119 128 144 205 163 153 189 150 123 129 169 193 256 213 209 192 185 199 198 212 243
184 238 188 162 186 198 220 196 237 260 223 242 228 220 201 194 206 208 212 225 309 151 189 181 121 153 175 237 184 96 185 169 149 217 150 142 271 267 250 193 162 184 192 217 207
207 254 226 196 211 219 285 246 278 239 236 264 212 216 177 200 230 193 189 167 179 166 173 177 153 118 79 354 176 204 183 141 118 96 198 146 256 359 23 308 223 196 231 233 211
220 257 267 201 294 206 184 242 233 218 261 246 233 198 173 207 247 182 153 173 172 168 140 155 121 171 178 172 134 179 186 185 154 140 166 220 269 288 244 227 227 233 249 240 233
199 239 210 222 260 231 125 272 254 237 227 222 279 216 191 216 192 155 128 133 120 145 98 120 148 121 71 72 50 162 186 188 206 186 192 248 208 224 208 210 212 191 239 290 286
218 218 193 250 214 195 218 234 249 290 234 254 234 222 191 188 165 191 146 175 169 131 89 91 116 149 98 42 60 236 203 192 230 234 278 159 265 225 251 41 198 207 175 226 236
229 270 222 312 192 147 217 206 245 276 249 215 213 220 313 260 157 288 149 128 122 128 128 114 140 140 141 341 309 295 198 189 194 213 217 226 242 156 221 225 207 211 201 214 223